Location: Pedholt
(56.0260°N, 10.2097°E)
Time: 21:24:12
(UTC+00:00)

Transit 2A Rocket - Pass Details

Date: 28 July 2021
Orbit: 586 x 917 km, 66.7° (Epoch: 26 September)

Event Time Altitude Azimuth Distance (km) Brightness Sun altitude
Rises 20:09:42 0° 308° (NW) 3,093 10.8 -4.6°
Reaches altitude 10° 20:12:09 10° 318° (NW) 2,227 9.4 -4.8°
Maximum altitude 20:16:48 34° 23° (NNE) 1,264 6.4 -5.3°
Drops below altitude 10° 20:21:51 10° 88° (E) 2,426 7.2 -5.8°
Sets 20:24:38 0° 98° (E) 3,409 7.9 -6.1°
